[[{"header":{"parameterUnit":"m.s-1","parameterCategory":1,"la1":30.2992,"la2":30.254,"lo1":-89.0895,"lo2":-89.0443,"dy":0.0025,"dx":0.0025,"nx":19,"ny":19,"refTime":"2026-05-08T03:00:00:Z","depth":0,"parameterNumber":2,"parameterNumberName":"U-component_of_WINDS"},"data":[0,0,0,-3.2758,-3.2763,-3.2959,-3.2959,-3.3218,-3.3221,0,0,0,0,0,0,0,0,0,0,0,-3.2704,-3.2706,-3.2758,-3.2763,-3.2958,-3.2959,-3.3218,-3.3221,0,0,0,0,0,0,0,0,0,0,0,-3.2703,-3.2705,-3.2708,-3.2764,-3.2958,-3.2959,-3.3217,-3.3067,0,0,0,0,0,0,0,0,0,0,-3.2876,-3.2828,-3.2705,-3.2708,-3.2765,-3.2958,-3.2959,-3.306,-3.3076,-3.3133,0,-3.3182,0,-3.3205,-3.3238,-3.3239,0,0,0,-3.2761,-3.2814,-3.2864,-3.2708,-3.2767,-3.2958,-3.287,-3.3069,-3.3088,-3.3155,-3.3186,-3.3195,-3.321,-3.324,-3.3241,-3.357,-3.3571,0,0,-3.275,-3.2741,-3.2851,-3.2876,-3.2844,-3.2863,-3.2876,-3.308,-3.3114,-3.3187,-3.3201,-3.3214,-3.3242,-3.3244,-3.3568,-3.357,0,0,0,-3.2721,-3.2734,-3.2778,-3.2866,-3.29,-3.2869,-3.2883,-3.3105,-3.312,-3.3204,-3.3217,-3.3243,-3.3247,-3.3566,-3.3569,-3.3639,0,0,0,-3.2714,-3.2717,-3.2774,-3.277,-3.2896,-3.3005,-3.2904,-3.3106,-3.3129,-3.3216,-3.3243,-3.3249,-3.3564,-3.3568,-3.3633,-3.3673,0,0,0,-3.269,-3.2714,-3.2743,-3.2769,-3.2853,-3.3001,-3.3028,-3.3111,-3.3137,-3.3239,-3.325,-3.3563,-3.3567,-3.3628,-3.3665,-3.3756,0,0,0,-3.2662,-3.2804,-3.2744,-3.2908,-3.2851,-3.3043,-3.3027,-3.3171,-3.3267,-3.3245,-3.3565,-3.3569,-3.3626,-3.366,-3.375,-3.3829,-3.3862,0,0,-3.2836,-3.2825,-3.2922,-3.2874,-3.3074,-3.3014,-3.3226,-3.3323,-3.3342,-3.3493,-3.3501,-3.3635,-3.3664,-3.3755,-3.405,-3.4076,0,0,0,-3.2974,-3.3043,-3.3098,-3.3188,-3.3265,-3.3335,-3.3401,-3.3437,-3.3565,-3.3417,-3.3694,-3.3712,-3.3765,-3.3803,-3.3825,-3.3871,-3.3586,-3.3586,-3.3585,-3.3206,-3.3222,-3.3383,-3.3423,-3.3511,-3.3577,-3.365,-3.3711,-3.3702,-3.3768,-3.3811,-3.3989,-3.4033,-3.405,-3.4097,-3.3856,-3.3857,-3.3857,-3.3857,-3.3461,-3.3561,-3.3546,-3.3696,-3.3713,-3.3841,-3.3911,-3.3901,-3.4023,-3.3957,-3.4005,-3.3929,-3.4077,-3.412,-3.3863,-3.3862,-3.3861,-3.386,-3.386,-3.3613,-3.3663,-3.3705,-3.3837,-3.3937,-3.3974,-3.4091,-3.4103,-3.4116,-3.4163,-3.421,-3.4209,-3.4208,-3.4185,-3.4186,-3.4186,-3.4187,-3.4187,-3.4188,-3.3753,-3.3798,-3.3894,-3.3988,-3.4047,-3.4128,-3.4197,-3.4257,-3.4326,-3.4326,-3.4326,-3.431,-3.4089,-3.4032,-3.4197,-3.4196,-3.4194,-3.4194,-3.4193,-3.4002,-3.3948,-3.4096,-3.4156,-3.4267,-3.4367,-3.4381,-3.4502,-3.4553,-3.4611,-3.4586,-3.4421,-3.441,-3.4393,-3.4346,-3.4583,-3.4583,-3.4583,-3.4583,-3.4128,-3.4124,-3.4279,-3.4373,-3.4468,-3.4496,-3.4665,-3.4721,-3.4772,-3.4805,-3.4773,-3.4712,-3.4694,-3.4694,-3.467,-3.4626,-3.4929,-3.4929,-3.493,-3.4281,-3.4287,-3.4427,-3.4474,-3.4562,-3.4639,-3.4798,-3.4909,-3.4955,-3.4944,-3.4831,-3.4816,-3.4718,-3.4686,-3.4669,-3.4632,-3.4551,0,0]},{"header":{"parameterUnit":"m.s-1","parameterCategory":1,"la1":30.2992,"la2":30.254,"lo1":-89.0895,"lo2":-89.0443,"dy":0.0025,"dx":0.0025,"nx":19,"ny":19,"refTime":"2026-05-08T03:00:00:Z","depth":0,"parameterNumber":3,"parameterNumberName":"V-component_of_WINDS"},"data":[0,0,0,-0.5937,-0.5936,-0.591,-0.591,-0.5865,-0.5864,0,0,0,0,0,0,0,0,0,0,0,-0.5938,-0.5938,-0.5937,-0.5936,-0.591,-0.591,-0.5865,-0.5864,0,0,0,0,0,0,0,0,0,0,0,-0.5938,-0.5938,-0.5937,-0.5936,-0.591,-0.591,-0.5865,-0.5889,0,0,0,0,0,0,0,0,0,0,-0.5916,-0.5911,-0.5938,-0.5937,-0.5936,-0.591,-0.591,-0.589,-0.5887,-0.5871,0,-0.5856,0,-0.5859,-0.586,-0.586,0,0,0,-0.5941,-0.5913,-0.5912,-0.5937,-0.5936,-0.591,-0.5924,-0.5889,-0.5885,-0.5867,-0.5855,-0.5854,-0.5858,-0.586,-0.586,-0.5748,-0.5747,0,0,-0.5943,-0.593,-0.5914,-0.591,-0.5913,-0.5924,-0.5923,-0.5887,-0.5873,-0.5855,-0.5853,-0.5857,-0.5859,-0.5859,-0.5749,-0.5748,0,0,0,-0.5944,-0.5931,-0.5931,-0.5911,-0.5907,-0.5923,-0.5922,-0.5874,-0.5875,-0.5853,-0.5857,-0.5859,-0.5858,-0.575,-0.5749,-0.5696,0,0,0,-0.5945,-0.5931,-0.5931,-0.5923,-0.5908,-0.5891,-0.591,-0.5878,-0.5874,-0.5857,-0.5859,-0.5858,-0.5751,-0.5749,-0.57,-0.5674,0,0,0,-0.5942,-0.5931,-0.5925,-0.5922,-0.5911,-0.5892,-0.5891,-0.5877,-0.5877,-0.586,-0.5858,-0.5751,-0.575,-0.5703,-0.5679,-0.5638,0,0,0,-0.5936,-0.5881,-0.5924,-0.5864,-0.5911,-0.586,-0.5891,-0.5854,-0.5834,-0.5859,-0.5751,-0.5749,-0.5704,-0.5682,-0.5641,-0.56,-0.5582,0,0,-0.586,-0.5872,-0.5838,-0.5875,-0.5813,-0.5865,-0.5795,-0.579,-0.5801,-0.5765,-0.5762,-0.5699,-0.5679,-0.5638,-0.5491,-0.5477,0,0,0,-0.5809,-0.5784,-0.577,-0.5749,-0.5743,-0.5734,-0.574,-0.5737,-0.5707,-0.578,-0.5675,-0.5663,-0.564,-0.5621,-0.5609,-0.5588,-0.574,-0.574,-0.574,-0.5683,-0.5697,-0.564,-0.5651,-0.5631,-0.5635,-0.5619,-0.5616,-0.564,-0.5614,-0.5603,-0.5512,-0.5489,-0.548,-0.5458,-0.5585,-0.5585,-0.5585,-0.5584,-0.557,-0.5535,-0.5564,-0.5519,-0.5535,-0.5497,-0.5499,-0.5516,-0.5481,-0.5523,-0.5503,-0.5544,-0.5464,-0.5445,-0.5581,-0.5581,-0.5582,-0.5582,-0.5582,-0.5487,-0.5473,-0.5469,-0.5438,-0.5411,-0.5425,-0.5389,-0.5406,-0.5421,-0.5402,-0.5389,-0.539,-0.5391,-0.5395,-0.5395,-0.5394,-0.5394,-0.5394,-0.5394,-0.5401,-0.5399,-0.5367,-0.5352,-0.5339,-0.5323,-0.5325,-0.5312,-0.5302,-0.5317,-0.5317,-0.5339,-0.5454,-0.5481,-0.5389,-0.539,-0.539,-0.5391,-0.5391,-0.5278,-0.5308,-0.5258,-0.5244,-0.5226,-0.5196,-0.5218,-0.5189,-0.5181,-0.5161,-0.5189,-0.5272,-0.5285,-0.5295,-0.5317,-0.5188,-0.5188,-0.5188,-0.5188,-0.5206,-0.5214,-0.5165,-0.514,-0.5119,-0.5132,-0.5072,-0.5071,-0.5076,-0.5071,-0.5093,-0.5124,-0.5133,-0.5141,-0.5154,-0.5175,-0.5013,-0.5012,-0.5012,-0.5129,-0.5135,-0.5082,-0.5086,-0.5072,-0.5059,-0.5002,-0.4972,-0.4984,-0.5005,-0.5067,-0.5074,-0.5125,-0.5142,-0.5164,-0.5184,-0.5222,0,0]}]]